FW1757 Weather Reports


Display with metric or nautical units.
time (UTC)temp
F
wind
direction
speed
MPH
gust
MPH
rain 1hr
in
rain 24hr
in
rain mn
in
humidity
%
barometer
mb
20260508132549 53 254 0.0 0.0 0.00 0.00 0.00 68 1015.1
20260508132049 53 253 0.0 0.0 0.00 0.00 0.00 68 1015.1
20260508131600 53 290 0.0 0.0 0.00 0.00 0.00 68 1015.0
20260508131049 53 281 0.0 0.0 0.00 0.00 0.00 68 1015.0
20260508130552 53 298 0.0 0.0 0.00 0.00 0.00 68 1015.0
20260508130048 53 245 0.0 0.0 0.00 0.00 0.00 68 1015.0
20260508125550 53 236 0.0 0.0 0.00 0.00 0.00 68 1014.9
20260508125047 53 243 0.0 0.0 0.00 0.00 0.00 68 1014.9
20260508124548 53 241 0.0 0.0 0.00 0.00 0.00 68 1014.9
20260508124047 53 289 0.0 0.0 0.00 0.00 0.00 68 1014.9
20260508123546 52 266 0.0 0.0 0.00 0.00 0.00 68 1015.0
20260508123100 52 245 0.0 0.0 0.00 0.00 0.00 68 1014.9
20260508122549 52 283 0.0 0.0 0.00 0.00 0.00 67 1014.9
20260508122047 52 254 0.0 0.0 0.00 0.00 0.00 67 1014.9
20260508121548 52 279 0.0 0.0 0.00 0.00 0.00 67 1014.9
20260508121046 52 279 0.0 0.0 0.00 0.00 0.00 67 1014.9
20260508120545 52 263 0.0 0.0 0.00 0.00 0.00 66 1014.9
20260508120104 52 242 0.0 0.0 0.00 0.00 0.00 66 1015.0
20260508115544 52 298 0.0 0.0 0.00 0.00 0.00 66 1014.8
20260508115044 52 232 0.0 0.0 0.00 0.00 0.00 65 1014.8
20260508114555 52 225 0.0 0.0 0.00 0.00 0.00 65 1014.9
20260508114043 52 203 0.0 0.0 0.00 0.00 0.00 65 1015.0
20260508113543 52 206 0.0 0.0 0.00 0.00 0.00 64 1014.9
20260508113043 52 201 0.0 0.0 0.00 0.00 0.00 64 1014.8
20260508112542 52 218 0.0 0.0 0.00 0.00 0.00 64 1014.7
20260508112042 52 246 0.0 0.0 0.00 0.00 0.00 64 1014.7
20260508111545 52 225 0.0 0.0 0.00 0.00 0.00 64 1014.6
20260508111042 52 244 0.0 0.0 0.00 0.00 0.00 64 1014.5
20260508110542 52 239 0.0 0.0 0.00 0.00 0.00 63 1014.5
20260508110041 52 267 0.0 0.0 0.00 0.00 0.00 63 1014.6
20260508105541 52 267 0.0 0.0 0.00 0.00 0.00 63 1014.5
20260508105042 52 267 0.0 0.0 0.00 0.00 0.00 63 1014.6
20260508104545 52 263 0.0 0.0 0.00 0.00 0.00 63 1014.5
20260508104041 52 283 0.0 0.0 0.00 0.00 0.00 63 1014.5
20260508103541 52 289 0.0 0.0 0.00 0.00 0.00 63 1014.5
20260508103055 52 289 0.0 0.0 0.00 0.00 0.00 63 1014.6
20260508102540 52 287 0.0 0.0 0.00 0.00 0.00 63 1014.6
20260508102040 52 277 0.0 0.0 0.00 0.00 0.00 62 1014.6
20260508101550 52 277 0.0 0.0 0.00 0.00 0.00 63 1014.6
20260508101040 52 288 0.0 0.0 0.00 0.00 0.00 62 1014.6
20260508100538 53 259 0.0 0.0 0.00 0.00 0.00 61 1014.7
20260508100038 53 259 0.0 0.0 0.00 0.00 0.00 61 1014.6
20260508095541 53 259 0.0 0.0 0.00 0.00 0.00 61 1014.7
20260508095038 53 259 0.0 0.0 0.00 0.00 0.00 61 1014.7
20260508094537 53 259 0.0 0.0 0.00 0.00 0.00 60 1014.7
20260508094035 53 256 0.0 0.0 0.00 0.00 0.00 60 1014.6
20260508093538 53 256 0.0 0.0 0.00 0.00 0.00 59 1014.6
20260508093039 53 236 0.0 0.0 0.00 0.00 0.00 59 1014.5
20260508092535 54 236 0.0 0.0 0.00 0.00 0.00 59 1014.4
20260508092033 54 232 0.0 0.0 0.00 0.00 0.00 59 1014.4
20260508091535 54 232 0.0 0.0 0.00 0.00 0.00 58 1014.5
20260508091033 54 232 0.0 0.0 0.00 0.00 0.00 58 1014.5
20260508090533 54 250 0.0 0.0 0.00 0.00 0.00 58 1014.5
20260508090033 54 268 0.0 0.0 0.00 0.00 0.00 57 1014.5
20260508085532 54 246 0.0 0.0 0.00 0.00 0.00 57 1014.4
20260508085031 54 249 0.0 0.0 0.00 0.00 0.00 57 1014.4
20260508084531 54 230 0.0 0.0 0.00 0.00 0.00 57 1014.4
20260508084031 54 223 0.0 0.0 0.00 0.00 0.00 57 1014.4
20260508083531 54 250 0.0 0.0 0.00 0.00 0.00 57 1014.4
20260508083033 54 242 0.0 0.0 0.00 0.00 0.00 56 1014.3
20260508082530 54 244 0.0 0.0 0.00 0.00 0.00 56 1014.4
20260508082029 54 227 0.0 0.0 0.00 0.00 0.00 56 1014.4
20260508081529 54 262 0.0 0.0 0.00 0.00 0.00 56 1014.3
20260508081028 54 263 0.0 0.0 0.00 0.00 0.00 56 1014.2
20260508080528 54 263 0.0 0.0 0.00 0.00 0.00 57 1014.2
20260508080028 54 263 0.0 0.0 0.00 0.00 0.00 56 1014.3
20260508075528 54 232 0.0 0.0 0.00 0.00 0.00 57 1014.2
20260508075031 54 232 0.0 0.0 0.00 0.00 0.00 57 1014.1
20260508074528 54 231 0.0 0.0 0.00 0.00 0.00 57 1014.2
20260508074027 54 239 0.0 0.0 0.00 0.00 0.00 57 1014.1
20260508073527 54 257 0.0 0.0 0.00 0.00 0.00 57 1014.2
20260508073036 54 259 0.0 0.0 0.00 0.00 0.00 57 1014.1
20260508072529 54 253 0.0 0.0 0.00 0.00 0.00 57 1014.2
20260508072026 54 254 0.0 0.0 0.00 0.00 0.00 58 1014.2
20260508071526 54 254 0.0 0.0 0.00 0.00 0.00 58 1014.1
20260508071025 55 254 0.0 0.0 0.00 0.00 0.00 56 1014.1
20260508070524 55 254 0.0 0.0 0.00 0.00 0.00 56 1014.1
20260508070024 55 254 0.0 0.0 0.00 0.00 0.00 56 1014.1
20260508065523 55 254 0.0 0.0 0.00 0.00 0.00 54 1014.1
20260508065026 56 254 0.0 0.0 0.00 0.00 0.00 54 1014.0
20260508064527 56 254 0.0 0.0 0.00 0.00 0.00 53 1014.1
20260508064022 56 254 0.0 0.0 0.00 0.00 0.00 52 1014.0
20260508063522 57 254 0.0 0.0 0.00 0.00 0.00 52 1014.0
20260508063021 57 254 0.0 0.0 0.00 0.00 0.00 50 1014.0
20260508062526 58 254 0.0 0.0 0.00 0.00 0.00 51 1014.0
20260508062021 58 254 0.0 0.0 0.00 0.00 0.00 49 1013.9
20260508061521 59 254 0.0 0.0 0.00 0.00 0.00 48 1014.0
20260508061023 59 254 0.0 0.0 0.00 0.00 0.00 47 1014.0
20260508060521 60 254 0.0 0.0 0.00 0.00 0.00 47 1014.1
20260508060020 60 257 0.0 0.0 0.00 0.00 0.00 46 1014.1
20260508055521 60 269 0.0 0.0 0.00 0.00 0.00 46 1014.0
20260508055020 60 258 0.0 0.0 0.00 0.00 0.00 45 1014.0
20260508054520 60 290 0.0 0.0 0.00 0.00 0.00 45 1014.0
20260508054019 60 253 0.0 0.0 0.00 0.00 0.00 45 1014.0
20260508053519 60 302 0.0 0.0 0.00 0.00 0.00 45 1014.0
20260508053020 60 294 0.0 0.0 0.00 0.00 0.00 45 1013.9
20260508052523 60 296 0.0 0.0 0.00 0.00 0.00 45 1013.9
20260508052019 61 252 0.0 0.0 0.00 0.00 0.00 45 1013.9
20260508051519 61 262 0.0 0.0 0.00 0.00 0.00 44 1013.9
20260508051119 61 269 0.0 0.0 0.00 0.00 0.00 44 1013.9
20260508050519 61 246 0.0 0.0 0.00 0.00 0.00 44 1013.8
20260508050033 61 288 0.0 0.0 0.00 0.00 0.00 44 1013.9
20260508045619 61 277 0.0 0.0 0.00 0.00 0.00 43 1013.7
20260508045018 61 296 0.0 0.0 0.00 0.00 0.00 43 1013.6
20260508044518 62 310 0.0 0.0 0.00 0.00 0.00 42 1013.7
20260508044018 62 242 0.0 0.0 0.00 0.00 0.00 42 1013.5
20260508043517 62 205 0.0 0.0 0.00 0.00 0.00 42 1013.5
20260508043017 62 289 0.0 0.0 0.00 0.00 0.00 41 1013.5
20260508042517 63 199 0.0 0.0 0.00 0.00 0.00 41 1013.4
20260508042022 63 277 0.0 0.0 0.00 0.00 0.00 40 1013.5
20260508041517 63 300 0.0 0.0 0.00 0.00 0.00 39 1013.5
20260508041017 63 226 0.0 0.0 0.00 0.00 0.00 38 1013.5
20260508040518 63 278 0.0 0.0 0.00 0.00 0.00 38 1013.4
20260508040016 63 230 0.0 0.0 0.00 0.00 0.00 37 1013.3
20260508035516 63 302 0.0 0.0 0.00 0.00 0.00 36 1013.4
20260508035016 64 327 0.0 0.0 0.00 0.00 0.00 36 1013.4
20260508034519 64 295 0.0 0.0 0.00 0.00 0.00 35 1013.3
20260508034016 64 293 0.0 0.0 0.00 0.00 0.00 33 1013.2
20260508033515 64 297 0.0 0.0 0.00 0.00 0.00 33 1013.2
20260508033015 64 283 0.0 0.0 0.00 0.00 0.00 32 1013.2
20260508032515 65 265 0.0 0.0 0.00 0.00 0.00 31 1013.1
20260508032016 65 288 0.0 0.0 0.00 0.00 0.00 30 1013.0
20260508031515 65 257 0.0 0.0 0.00 0.00 0.00 29 1013.1
20260508031015 65 292 0.0 0.0 0.00 0.00 0.00 29 1013.0
20260508030515 66 256 0.0 0.0 0.00 0.00 0.00 28 1013.1
20260508030015 66 242 0.0 0.0 0.00 0.00 0.00 27 1013.0
20260508025615 66 298 0.0 0.0 0.00 0.00 0.00 25 1013.0
20260508025115 66 278 0.0 0.0 0.00 0.00 0.00 25 1013.0
20260508024513 67 280 0.0 0.0 0.00 0.00 0.00 23 1012.9
20260508024013 67 290 0.0 0.0 0.00 0.00 0.00 23 1013.0
20260508023513 67 251 0.0 0.0 0.00 0.00 0.00 23 1012.9
20260508023013 67 313 0.0 0.0 0.00 0.00 0.00 23 1012.9
20260508022512 68 261 0.0 0.0 0.00 0.00 0.00 24 1012.7
20260508022012 68 277 0.0 0.0 0.00 0.00 0.00 23 1012.7
20260508021512 68 306 0.0 0.0 0.00 0.00 0.00 24 1012.7
20260508021013 68 245 0.0 0.0 0.00 0.00 0.00 24 1012.7
20260508020511 68 230 0.0 0.0 0.00 0.00 0.00 23 1012.7
20260508020012 69 273 0.0 0.0 0.00 0.00 0.00 23 1012.7
20260508015512 69 300 0.0 0.0 0.00 0.00 0.00 23 1012.9
20260508015010 69 283 0.0 0.0 0.00 0.00 0.00 22 1012.9
20260508014512 70 288 0.0 0.0 0.00 0.00 0.00 22 1012.7
20260508014008 70 257 0.0 0.0 0.00 0.00 0.00 22 1012.9
20260508013508 70 262 0.0 0.0 0.00 0.00 0.00 22 1012.8
20260508013010 70 268 0.0 0.0 0.00 0.00 0.00 22 1013.0
20260508012512 70 290 0.0 0.0 0.00 0.00 0.00 22 1013.0
20260508012007 71 291 0.0 0.0 0.00 0.00 0.00 21 1013.1
20260508011506 71 275 0.0 0.0 0.00 0.00 0.00 24 1013.2
20260508011006 70 240 0.0 0.0 0.00 0.00 0.00 25 1013.3
20260508010506 70 273 0.0 0.0 0.00 0.00 0.00 23 1013.4
20260508010006 70 306 0.0 0.0 0.00 0.00 0.00 24 1013.3
20260508005507 70 290 0.0 0.0 0.00 0.00 0.00 22 1013.3
20260508005007 70 274 0.0 0.0 0.00 0.00 0.00 23 1013.4
20260508004509 70 298 0.0 0.0 0.00 0.00 0.00 23 1013.4
20260508004005 71 292 0.0 0.0 0.00 0.00 0.00 22 1013.4
20260508003504 71 276 0.0 0.0 0.00 0.00 0.00 22 1013.5
20260508003006 70 300 0.0 0.0 0.00 0.00 0.00 24 1013.4
20260508002504 70 290 0.0 0.0 0.00 0.00 0.00 23 1013.5
20260508002004 70 249 0.0 0.0 0.00 0.00 0.00 22 1013.5
20260508001508 71 250 0.0 0.0 0.00 0.00 0.00 21 1013.5
20260508001004 71 265 0.0 0.0 0.00 0.00 0.00 21 1013.4
20260508000507 71 270 0.0 0.0 0.00 0.00 0.00 20 1013.4
20260508000003 71 295 0.0 0.0 0.00 0.00 0.00 19 1013.4
20260507235504 71 261 0.0 0.0 0.00 0.00 0.00 18 1013.4
20260507235005 72 301 0.0 0.0 0.00 0.00 0.00 20 1013.3
20260507234502 72 303 0.0 0.0 0.00 0.00 0.00 18 1013.4
20260507234050 72 287 0.0 0.0 0.00 0.00 0.00 21 1013.4
20260507233600 72 292 0.0 0.0 0.00 0.00 0.00 20 1013.4
20260507233100 72 270 0.0 0.0 0.00 0.00 0.00 20 1013.2
20260507232600 72 310 0.0 0.0 0.00 0.00 0.00 21 1013.5
20260507232057 72 265 0.0 0.0 0.00 0.00 0.00 23 1013.4
20260507231557 71 258 0.0 0.0 0.00 0.00 0.00 24 1013.5
20260507231056 71 277 0.0 0.0 0.00 0.00 0.00 23 1013.7
20260507230556 71 311 0.0 0.0 0.00 0.00 0.00 25 1013.5
20260507230055 71 267 0.0 0.0 0.00 0.00 0.00 26 1013.5
20260507225555 71 219 0.0 0.0 0.00 0.00 0.00 27 1013.6
20260507225054 71 302 0.0 0.0 0.00 0.00 0.00 29 1013.5
20260507224559 71 273 0.0 0.0 0.00 0.00 0.00 27 1013.7
20260507224051 71 305 0.0 0.0 0.00 0.00 0.00 30 1013.7
20260507223551 71 271 0.0 0.0 0.00 0.00 0.00 30 1013.8
20260507223051 71 292 0.0 0.0 0.00 0.00 0.00 30 1013.9
20260507222549 71 277 0.0 0.0 0.00 0.00 0.00 30 1014.0
20260507222051 71 263 0.0 0.0 0.00 0.00 0.00 31 1014.1
20260507221549 71 306 0.0 0.0 0.00 0.00 0.00 30 1014.1
20260507221048 71 287 0.0 0.0 0.00 0.00 0.00 31 1014.2
20260507220552 71 281 0.0 0.0 0.00 0.00 0.00 32 1014.2
20260507220049 71 290 0.0 0.0 0.00 0.00 0.00 31 1014.3
20260507215549 71 277 0.0 0.0 0.00 0.00 0.00 31 1014.3
20260507215050 71 281 0.0 0.0 0.00 0.00 0.00 31 1014.4
20260507214552 71 311 0.0 0.0 0.00 0.00 0.00 34 1014.3
20260507214048 71 281 0.0 0.0 0.00 0.00 0.00 32 1014.3
20260507213548 71 298 0.0 0.0 0.00 0.00 0.00 33 1014.2
20260507213046 71 291 0.0 0.0 0.00 0.00 0.00 32 1014.2
20260507212544 71 291 0.0 0.0 0.00 0.00 0.00 32 1014.3
20260507212044 70 292 0.0 0.0 0.00 0.00 0.00 36 1014.2
20260507211544 70 294 0.0 0.0 0.00 0.00 0.00 34 1014.3
20260507211042 70 304 0.0 0.0 0.00 0.00 0.00 36 1014.3
20260507210543 70 242 0.0 0.0 0.00 0.00 0.00 33 1014.3
20260507210040 69 297 0.0 0.0 0.00 0.00 0.00 39 1014.4
20260507205539 69 332 0.0 0.0 0.00 0.00 0.00 38 1014.6
20260507205041 68 262 0.0 0.0 0.00 0.00 0.00 39 1014.5
20260507204543 68 294 0.0 0.0 0.00 0.00 0.00 39 1014.5
20260507204036 68 249 0.0 0.0 0.00 0.00 0.00 37 1014.6
20260507203535 68 289 0.0 0.0 0.00 0.00 0.00 38 1014.7
20260507203035 67 294 0.0 0.0 0.00 0.00 0.00 40 1014.6
20260507202533 67 277 0.0 0.0 0.00 0.00 0.00 41 1014.8
20260507202035 67 312 0.0 0.0 0.00 0.00 0.00 40 1014.9
20260507201533 67 300 0.0 0.0 0.00 0.00 0.00 41 1014.9
20260507201032 67 290 0.0 0.0 0.00 0.00 0.00 41 1015.1
20260507200532 67 289 0.0 0.0 0.00 0.00 0.00 44 1015.0
20260507200030 66 275 0.0 0.0 0.00 0.00 0.00 40 1015.1
20260507195528 66 313 0.0 0.0 0.00 0.00 0.00 42 1015.2
20260507195029 66 281 0.0 0.0 0.00 0.00 0.00 41 1015.3
20260507194528 66 290 0.0 0.0 0.00 0.00 0.00 41 1015.4
20260507194027 65 294 0.0 0.0 0.00 0.00 0.00 41 1015.3
20260507193527 65 295 0.0 0.0 0.00 0.00 0.00 36 1015.3
20260507193031 65 290 0.0 0.0 0.00 0.00 0.00 38 1015.5
20260507192526 65 308 0.0 0.0 0.00 0.00 0.00 44 1015.7
20260507192026 65 294 0.0 0.0 0.00 0.00 0.00 44 1015.7
20260507191525 65 277 0.0 0.0 0.00 0.00 0.00 43 1015.8
20260507191024 65 252 0.0 0.0 0.00 0.00 0.00 44 1015.8
20260507190523 64 320 0.0 0.0 0.00 0.00 0.00 44 1015.8
20260507190022 64 262 0.0 0.0 0.00 0.00 0.00 44 1015.8
20260507185620 63 244 0.0 0.0 0.00 0.00 0.00 46 1015.9
20260507185021 63 271 0.0 0.0 0.00 0.00 0.00 46 1015.9
20260507184519 63 286 0.0 0.0 0.00 0.00 0.00 46 1015.8
20260507184020 63 294 0.0 0.0 0.00 0.00 0.00 43 1016.0
20260507183516 63 327 0.0 0.0 0.00 0.00 0.00 46 1016.0
20260507183015 62 333 0.0 0.0 0.00 0.00 0.00 48 1016.1
20260507182515 62 292 0.0 0.0 0.00 0.00 0.00 47 1016.1
20260507182015 62 298 0.0 0.0 0.00 0.00 0.00 46 1016.0
20260507181514 62 309 0.0 0.0 0.00 0.00 0.00 47 1016.0
20260507181013 62 303 0.0 0.0 0.00 0.00 0.00 48 1015.9
20260507180516 61 281 0.0 0.0 0.00 0.00 0.00 50 1016.0
20260507180010 61 264 0.0 0.0 0.00 0.00 0.00 53 1016.1
20260507175510 61 276 0.0 0.0 0.00 0.00 0.00 55 1016.0
20260507175011 60 266 0.0 0.0 0.00 0.00 0.00 53 1016.1
20260507174508 60 281 0.0 0.0 0.00 0.00 0.00 53 1016.2
20260507174008 60 261 0.0 0.0 0.00 0.00 0.00 55 1016.1
20260507173509 60 338 0.0 0.0 0.00 0.00 0.00 55 1016.1
20260507173005 60 304 0.0 0.0 0.00 0.00 0.00 54 1016.1
20260507172506 59 274 0.0 0.0 0.00 0.00 0.00 55 1016.1
20260507172005 59 284 0.0 0.0 0.00 0.00 0.00 55 1016.1
20260507171511 59 312 0.0 0.0 0.00 0.00 0.00 55 1016.1
20260507171005 59 288 0.0 0.0 0.00 0.00 0.00 59 1016.2
20260507170502 59 297 0.0 0.0 0.00 0.00 0.00 59 1016.1
20260507170002 58 229 0.0 0.0 0.00 0.00 0.00 61 1016.1
20260507165502 58 240 0.0 0.0 0.00 0.00 0.00 61 1016.2
20260507165001 58 245 0.0 0.0 0.00 0.00 0.00 63 1016.3
20260507164501 57 265 0.0 0.0 0.00 0.00 0.00 62 1016.4
20260507164104 57 267 0.0 0.0 0.00 0.00 0.00 63 1016.3
20260507163600 57 250 0.0 0.0 0.00 0.00 0.00 64 1016.4
20260507163100 57 254 0.0 0.0 0.00 0.00 0.00 65 1016.3
20260507162600 57 303 0.0 0.0 0.00 0.00 0.00 65 1016.4
20260507162101 56 279 0.0 0.0 0.00 0.00 0.00 65 1016.5
20260507161600 56 280 0.0 0.0 0.00 0.00 0.00 65 1016.5
20260507161059 56 281 0.0 0.0 0.00 0.00 0.00 66 1016.5
20260507160600 56 291 0.0 0.0 0.00 0.00 0.00 67 1016.6
20260507160059 55 304 0.0 0.0 0.00 0.00 0.00 67 1016.8
20260507155600 55 300 0.0 0.0 0.00 0.00 0.00 68 1017.0
20260507155058 55 292 0.0 0.0 0.00 0.00 0.00 68 1017.0
20260507154605 55 278 0.0 0.0 0.00 0.00 0.00 68 1017.1
20260507154058 55 296 0.0 0.0 0.00 0.00 0.00 68 1017.1
20260507153557 54 281 0.0 0.0 0.00 0.00 0.00 68 1017.1
20260507153101 54 267 0.0 0.0 0.00 0.00 0.00 68 1017.1
20260507152557 54 261 0.0 0.0 0.00 0.00 0.00 68 1017.0
20260507152057 54 263 0.0 0.0 0.00 0.00 0.00 68 1017.0
20260507151557 54 246 0.0 0.0 0.00 0.00 0.00 68 1017.1
20260507151056 54 295 0.0 0.0 0.00 0.00 0.00 69 1017.1
20260507150556 54 288 0.0 0.0 0.00 0.00 0.00 68 1017.2
20260507150057 54 258 0.0 0.0 0.00 0.00 0.00 68 1017.2
20260507145556 54 277 0.0 0.0 0.00 0.00 0.00 68 1017.2
20260507145056 53 247 0.0 0.0 0.00 0.00 0.00 68 1017.3
20260507144557 53 251 0.0 0.0 0.00 0.00 0.00 67 1017.3
20260507144056 53 290 0.0 0.0 0.00 0.00 0.00 68 1017.3
20260507143554 53 292 0.0 0.0 0.00 0.00 0.00 66 1017.3
20260507143055 53 267 0.0 0.0 0.00 0.00 0.00 66 1017.4
20260507142555 53 279 0.0 0.0 0.00 0.00 0.00 64 1017.3
20260507142054 53 276 0.0 0.0 0.00 0.00 0.00 64 1017.4
20260507141555 53 266 0.0 0.0 0.00 0.00 0.00 64 1017.3
20260507141054 53 284 0.0 0.0 0.00 0.00 0.00 64 1017.3
20260507140556 53 275 0.0 0.0 0.00 0.00 0.00 64 1017.2
20260507140054 53 224 0.0 0.0 0.00 0.00 0.00 63 1017.4
20260507135556 53 247 0.0 0.0 0.00 0.00 0.00 63 1017.2
20260507135053 53 277 0.0 0.0 0.00 0.00 0.00 62 1017.2
20260507134555 53 265 0.0 0.0 0.00 0.00 0.00 62 1017.1
20260507134052 53 265 0.0 0.0 0.00 0.00 0.00 62 1017.1
20260507133551 53 267 0.0 0.0 0.00 0.00 0.00 62 1016.9
20260507133055 53 269 0.0 0.0 0.00 0.00 0.00 61 1016.9